Time,TemperatureF,DewpointF,PressureIn,WindDirection,WindDirectionDegrees,WindSpeedMPH,WindSpeedGustMPH,Humidity,HourlyPrecipIn,Conditions,Clouds,dailyrainin,SoftwareType,DateUTC
2013-02-17 00:02:00,29.0,29.0,29.71,North,7,0.0,16.0,99,0.00,,,0.01,,2013-02-17 05:02:00,
2013-02-17 00:12:00,29.0,29.0,29.70,North,7,0.0,16.0,99,0.00,,,0.01,,2013-02-17 05:12:00,
2013-02-17 00:22:00,29.0,29.0,29.70,North,7,0.0,16.0,99,0.00,,,0.01,,2013-02-17 05:22:00,
2013-02-17 00:33:00,29.0,29.0,29.70,North,7,0.0,16.0,99,0.00,,,0.01,,2013-02-17 05:33:00,
2013-02-17 00:42:00,29.0,29.0,29.70,North,7,0.0,16.0,99,0.00,,,0.01,,2013-02-17 05:42:00,
2013-02-17 00:52:00,28.0,28.0,29.70,NNE,20,0.0,9.0,99,0.00,,,0.01,,2013-02-17 05:52:00,
2013-02-17 01:02:00,28.0,28.0,29.70,NNE,20,0.0,9.0,99,0.00,,,0.01,,2013-02-17 06:02:00,
2013-02-17 01:11:00,28.0,28.0,29.70,NNE,20,0.0,9.0,99,0.00,,,0.01,,2013-02-17 06:11:00,
2013-02-17 01:21:00,28.0,28.0,29.67,North,358,1.0,9.0,99,0.00,,,0.01,,2013-02-17 06:21:00,
2013-02-17 01:32:00,28.0,28.0,29.67,North,358,1.0,9.0,99,0.00,,,0.01,,2013-02-17 06:32:00,
2013-02-17 01:42:00,28.0,28.0,29.67,North,358,1.0,9.0,99,0.00,,,0.01,,2013-02-17 06:42:00,
2013-02-17 01:51:00,28.0,28.0,29.66,North,358,2.0,12.0,99,0.00,,,0.01,,2013-02-17 06:51:00,
2013-02-17 02:01:00,28.0,28.0,29.66,North,358,2.0,12.0,99,0.00,,,0.01,,2013-02-17 07:01:00,
2013-02-17 02:11:00,27.0,27.0,29.66,North,359,0.0,12.0,99,0.00,,,0.01,,2013-02-17 07:11:00,
2013-02-17 02:21:00,27.0,27.0,29.66,North,359,0.0,12.0,99,0.00,,,0.01,,2013-02-17 07:21:00,
2013-02-17 02:32:00,27.0,27.0,29.66,North,359,0.0,12.0,99,0.00,,,0.01,,2013-02-17 07:32:00,
2013-02-17 02:42:00,27.0,27.0,29.66,North,359,0.0,12.0,99,0.00,,,0.01,,2013-02-17 07:42:00,
2013-02-17 02:51:00,27.0,27.0,29.63,NNW,335,5.0,12.0,99,0.00,,,0.01,,2013-02-17 07:51:00,
2013-02-17 03:01:00,27.0,27.0,29.63,NNW,335,5.0,12.0,99,0.00,,,0.01,,2013-02-17 08:01:00,
2013-02-17 03:11:00,27.0,27.0,29.63,NNW,335,5.0,12.0,99,0.00,,,0.01,,2013-02-17 08:11:00,
2013-02-17 03:21:00,26.0,26.0,29.61,NNW,344,9.0,21.0,99,0.00,,,0.01,,2013-02-17 08:21:00,
2013-02-17 03:32:00,26.0,26.0,29.61,NNW,344,9.0,21.0,99,0.00,,,0.01,,2013-02-17 08:32:00,
2013-02-17 03:42:00,26.0,26.0,29.61,NNW,344,9.0,21.0,99,0.00,,,0.01,,2013-02-17 08:42:00,
2013-02-17 03:52:00,25.0,25.0,29.62,NW,324,1.0,21.0,99,0.00,,,0.01,,2013-02-17 08:52:00,
2013-02-17 04:02:00,25.0,25.0,29.62,NW,324,1.0,21.0,99,0.00,,,0.01,,2013-02-17 09:02:00,
2013-02-17 04:11:00,25.0,25.0,29.62,NW,324,1.0,21.0,99,0.00,,,0.01,,2013-02-17 09:11:00,
2013-02-17 04:21:00,24.0,24.0,29.62,NNW,335,9.0,23.0,99,0.00,,,0.01,,2013-02-17 09:21:00,
2013-02-17 04:32:00,24.0,24.0,29.62,NNW,335,9.0,23.0,99,0.00,,,0.01,,2013-02-17 09:32:00,
2013-02-17 04:42:00,24.0,24.0,29.62,NNW,335,9.0,23.0,99,0.00,,,0.01,,2013-02-17 09:42:00,
2013-02-17 04:51:00,23.0,23.0,29.60,NNW,348,10.0,26.0,99,0.00,,,0.01,,2013-02-17 09:51:00,
2013-02-17 05:01:00,23.0,23.0,29.60,NNW,348,10.0,26.0,99,0.00,,,0.01,,2013-02-17 10:01:00,
2013-02-17 05:11:00,22.0,22.0,29.59,NNW,332,10.0,26.0,99,0.00,,,0.01,,2013-02-17 10:11:00,
2013-02-17 05:21:00,22.0,22.0,29.59,NNW,332,10.0,26.0,99,0.00,,,0.01,,2013-02-17 10:21:00,
2013-02-17 05:32:00,22.0,22.0,29.59,NNW,332,10.0,26.0,99,0.00,,,0.01,,2013-02-17 10:32:00,
2013-02-17 05:42:00,22.0,22.0,29.59,NNW,332,10.0,26.0,99,0.00,,,0.01,,2013-02-17 10:42:00,
2013-02-17 05:52:00,21.0,21.0,29.58,NNW,341,8.0,26.0,99,0.00,,,0.01,,2013-02-17 10:52:00,
2013-02-17 06:01:00,21.0,21.0,29.58,NNW,341,8.0,26.0,99,0.00,,,0.01,,2013-02-17 11:01:00,
2013-02-17 06:11:00,21.0,21.0,29.58,NNW,341,8.0,26.0,99,0.00,,,0.01,,2013-02-17 11:11:00,
2013-02-17 06:21:00,20.0,20.0,29.56,North,8,10.0,26.0,99,0.00,,,0.01,,2013-02-17 11:21:00,
2013-02-17 06:32:00,20.0,20.0,29.56,North,8,10.0,26.0,99,0.00,,,0.01,,2013-02-17 11:32:00,
2013-02-17 06:42:00,20.0,20.0,29.56,North,8,10.0,26.0,99,0.00,,,0.01,,2013-02-17 11:42:00,
2013-02-17 06:52:00,20.0,20.0,29.54,NNW,327,7.0,26.0,99,0.00,,,0.01,,2013-02-17 11:52:00,
2013-02-17 07:03:00,20.0,20.0,29.54,NNW,327,7.0,26.0,99,0.00,,,0.01,,2013-02-17 12:03:00,
2013-02-17 07:11:00,20.0,20.0,29.54,NNW,327,7.0,26.0,99,0.00,,,0.01,,2013-02-17 12:11:00,
2013-02-17 07:22:00,20.0,20.0,29.52,NW,324,8.0,26.0,99,0.00,,,0.01,,2013-02-17 12:22:00,
2013-02-17 07:32:00,20.0,20.0,29.52,NW,324,8.0,26.0,99,0.00,,,0.01,,2013-02-17 12:32:00,
2013-02-17 07:42:00,20.0,20.0,29.52,NW,324,8.0,26.0,99,0.00,,,0.01,,2013-02-17 12:42:00,
2013-02-17 07:52:00,19.0,19.0,29.51,NNW,327,13.0,34.0,99,0.00,,,0.01,,2013-02-17 12:52:00,
2013-02-17 08:02:00,19.0,19.0,29.51,NNW,327,13.0,34.0,99,0.00,,,0.01,,2013-02-17 13:02:00,
2013-02-17 08:12:00,19.0,19.0,29.51,NNW,327,13.0,34.0,99,0.00,,,0.01,,2013-02-17 13:12:00,
2013-02-17 08:22:00,19.0,19.0,29.50,NNE,15,10.0,34.0,99,0.00,,,0.01,,2013-02-17 13:22:00,
2013-02-17 08:32:00,19.0,19.0,29.50,NNE,15,10.0,34.0,99,0.00,,,0.01,,2013-02-17 13:32:00,
2013-02-17 08:42:00,19.0,19.0,29.50,NNE,15,10.0,34.0,99,0.00,,,0.01,,2013-02-17 13:42:00,
2013-02-17 08:51:00,20.0,20.0,29.49,NNW,338,7.0,34.0,99,0.00,,,0.01,,2013-02-17 13:51:00,
2013-02-17 09:01:00,20.0,20.0,29.49,NNW,338,7.0,34.0,99,0.00,,,0.01,,2013-02-17 14:01:00,
2013-02-17 09:11:00,20.0,20.0,29.49,NNW,338,7.0,34.0,99,0.00,,,0.01,,2013-02-17 14:11:00,
2013-02-17 09:22:00,21.0,21.0,29.49,NNW,329,15.0,34.0,99,0.00,,,0.01,,2013-02-17 14:22:00,
2013-02-17 09:32:00,21.0,21.0,29.49,NNW,329,15.0,34.0,99,0.00,,,0.01,,2013-02-17 14:32:00,
2013-02-17 09:42:00,21.0,21.0,29.49,NNW,329,15.0,34.0,99,0.00,,,0.01,,2013-02-17 14:42:00,
2013-02-17 09:52:00,22.0,20.0,29.48,NW,317,11.0,34.0,90,0.00,,,0.01,,2013-02-17 14:52:00,
2013-02-17 10:02:00,22.0,20.0,29.48,NW,317,11.0,34.0,90,0.00,,,0.01,,2013-02-17 15:02:00,
2013-02-17 10:11:00,22.0,20.0,29.48,NW,317,11.0,34.0,90,0.00,,,0.01,,2013-02-17 15:11:00,
2013-02-17 10:21:00,23.0,17.0,29.48,NW,321,14.0,34.0,77,0.00,,,0.01,,2013-02-17 15:21:00,
2013-02-17 10:32:00,23.0,17.0,29.48,NW,321,14.0,34.0,77,0.00,,,0.01,,2013-02-17 15:32:00,
2013-02-17 10:42:00,23.0,17.0,29.48,NW,321,14.0,34.0,77,0.00,,,0.01,,2013-02-17 15:42:00,
2013-02-17 10:52:00,24.0,16.0,29.48,NW,313,10.0,40.0,72,0.00,,,0.01,,2013-02-17 15:52:00,
2013-02-17 11:01:00,24.0,16.0,29.48,NW,313,10.0,40.0,72,0.00,,,0.01,,2013-02-17 16:01:00,
2013-02-17 11:12:00,24.0,16.0,29.48,NW,313,10.0,40.0,72,0.00,,,0.01,,2013-02-17 16:12:00,
2013-02-17 11:21:00,24.0,15.0,29.49,NW,318,13.0,40.0,69,0.00,,,0.01,,2013-02-17 16:21:00,
2013-02-17 11:32:00,24.0,15.0,29.49,NW,318,13.0,40.0,69,0.00,,,0.01,,2013-02-17 16:32:00,
2013-02-17 11:42:00,24.0,15.0,29.49,NW,318,13.0,40.0,69,0.00,,,0.01,,2013-02-17 16:42:00,
2013-02-17 11:51:00,23.0,15.0,29.50,NW,308,11.0,40.0,71,0.00,,,0.01,,2013-02-17 16:51:00,
2013-02-17 12:02:00,23.0,15.0,29.50,NW,308,11.0,40.0,71,0.00,,,0.01,,2013-02-17 17:02:00,
2013-02-17 12:11:00,23.0,15.0,29.50,NW,308,11.0,40.0,71,0.00,,,0.01,,2013-02-17 17:11:00,
2013-02-17 12:21:00,23.0,15.0,29.50,NNW,329,14.0,42.0,71,0.00,,,0.01,,2013-02-17 17:21:00,
2013-02-17 12:32:00,23.0,15.0,29.50,NNW,329,14.0,42.0,71,0.00,,,0.01,,2013-02-17 17:32:00,
2013-02-17 12:52:00,24.0,15.0,29.51,NW,314,12.0,42.0,69,0.00,,,0.01,,2013-02-17 17:52:00,
2013-02-17 13:22:00,24.0,15.0,29.52,NW,312,13.0,42.0,68,0.00,,,0.01,,2013-02-17 18:22:00,
2013-02-17 14:22:00,26.0,14.0,29.54,NW,307,15.0,42.0,61,0.00,,,0.01,,2013-02-17 19:22:00,
2013-02-17 14:52:00,26.0,14.0,29.54,NW,310,16.0,43.0,59,0.00,,,0.01,,2013-02-17 19:52:00,
2013-02-17 15:02:00,26.0,14.0,29.54,NW,310,16.0,43.0,59,0.00,,,0.01,,2013-02-17 20:02:00,
2013-02-17 15:11:00,26.0,14.0,29.54,NW,310,16.0,43.0,59,0.00,,,0.01,,2013-02-17 20:11:00,
2013-02-17 15:22:00,27.0,14.0,29.55,NW,314,5.0,43.0,58,0.00,,,0.01,,2013-02-17 20:22:00,
2013-02-17 15:52:00,27.0,12.0,29.57,WNW,285,11.0,43.0,52,0.00,,,0.01,,2013-02-17 20:52:00,
2013-02-17 16:02:00,27.0,12.0,29.57,WNW,285,11.0,43.0,52,0.00,,,0.01,,2013-02-17 21:02:00,
2013-02-17 16:11:00,27.0,12.0,29.57,WNW,285,11.0,43.0,52,0.00,,,0.01,,2013-02-17 21:11:00,
2013-02-17 16:21:00,26.0,13.0,29.59,NW,304,14.0,43.0,58,0.00,,,0.00,,2013-02-17 21:21:00,
2013-02-17 16:52:00,25.0,12.0,29.60,NW,313,13.0,43.0,56,0.00,,,0.00,,2013-02-17 21:52:00,
2013-02-17 17:01:00,25.0,12.0,29.60,NW,313,13.0,43.0,56,0.00,,,0.00,,2013-02-17 22:01:00,
2013-02-17 17:12:00,25.0,12.0,29.60,NW,313,13.0,43.0,56,0.00,,,0.00,,2013-02-17 22:12:00,
2013-02-17 17:22:00,24.0,11.0,29.62,NW,307,11.0,43.0,56,0.00,,,0.00,,2013-02-17 22:22:00,
2013-02-17 17:32:00,24.0,11.0,29.62,NW,307,11.0,43.0,56,0.00,,,0.00,,2013-02-17 22:32:00,
2013-02-17 17:42:00,24.0,11.0,29.62,NW,307,11.0,43.0,56,0.00,,,0.00,,2013-02-17 22:42:00,
2013-02-17 17:52:00,24.0,11.0,29.64,NW,316,10.0,43.0,56,0.00,,,0.00,,2013-02-17 22:52:00,
2013-02-17 18:02:00,24.0,11.0,29.64,NW,316,10.0,43.0,56,0.00,,,0.00,,2013-02-17 23:02:00,
2013-02-17 18:11:00,24.0,11.0,29.64,NW,316,10.0,43.0,56,0.00,,,0.00,,2013-02-17 23:11:00,
2013-02-17 18:21:00,23.0,10.0,29.66,WNW,302,10.0,43.0,58,0.00,,,0.00,,2013-02-17 23:21:00,
2013-02-17 18:32:00,23.0,10.0,29.66,WNW,302,10.0,43.0,58,0.00,,,0.00,,2013-02-17 23:32:00,
2013-02-17 18:42:00,23.0,10.0,29.66,WNW,302,10.0,43.0,58,0.00,,,0.00,,2013-02-17 23:42:00,
2013-02-17 18:52:00,23.0,11.0,29.67,NW,308,11.0,43.0,59,0.00,,,0.00,,2013-02-17 23:52:00,
2013-02-17 19:02:00,23.0,11.0,29.67,NW,308,11.0,43.0,59,0.00,,,0.00,,2013-02-18 00:02:00,
2013-02-17 19:12:00,23.0,11.0,29.67,NW,308,11.0,43.0,59,0.00,,,0.00,,2013-02-18 00:12:00,
2013-02-17 19:22:00,22.0,10.0,29.68,WNW,299,15.0,43.0,60,0.00,,,0.00,,2013-02-18 00:22:00,
2013-02-17 19:32:00,22.0,10.0,29.68,WNW,299,15.0,43.0,60,0.00,,,0.00,,2013-02-18 00:32:00,
2013-02-17 19:42:00,22.0,10.0,29.68,WNW,299,15.0,43.0,60,0.00,,,0.00,,2013-02-18 00:42:00,
2013-02-17 19:52:00,22.0,11.0,29.70,NW,305,12.0,43.0,62,0.00,,,0.00,,2013-02-18 00:52:00,
2013-02-17 20:01:00,22.0,11.0,29.70,NW,305,12.0,43.0,62,0.00,,,0.00,,2013-02-18 01:01:00,
2013-02-17 20:21:00,21.0,10.0,29.70,NW,314,14.0,43.0,62,0.00,,,0.00,,2013-02-18 01:21:00,
2013-02-17 20:32:00,21.0,10.0,29.70,NW,314,14.0,43.0,62,0.00,,,0.00,,2013-02-18 01:32:00,
2013-02-17 20:42:00,21.0,10.0,29.70,NW,314,14.0,43.0,62,0.00,,,0.00,,2013-02-18 01:42:00,
2013-02-17 20:51:00,20.0,9.0,29.71,WNW,302,14.0,43.0,63,0.00,,,0.00,,2013-02-18 01:51:00,
2013-02-17 21:02:00,20.0,9.0,29.71,WNW,302,14.0,43.0,63,0.00,,,0.00,,2013-02-18 02:02:00,
2013-02-17 21:11:00,20.0,9.0,29.71,WNW,302,14.0,43.0,63,0.00,,,0.00,,2013-02-18 02:11:00,
2013-02-17 21:22:00,19.0,9.0,29.72,NW,309,19.0,43.0,64,0.00,,,0.00,,2013-02-18 02:22:00,
2013-02-17 21:32:00,19.0,9.0,29.72,NW,309,19.0,43.0,64,0.00,,,0.00,,2013-02-18 02:32:00,
2013-02-17 21:42:00,19.0,9.0,29.72,NW,309,19.0,43.0,64,0.00,,,0.00,,2013-02-18 02:42:00,
2013-02-17 21:52:00,19.0,10.0,29.72,WNW,294,14.0,43.0,66,0.00,,,0.00,,2013-02-18 02:52:00,
2013-02-17 22:02:00,19.0,10.0,29.72,WNW,294,14.0,43.0,66,0.00,,,0.00,,2013-02-18 03:02:00,
2013-02-17 22:11:00,19.0,10.0,29.72,WNW,294,14.0,43.0,66,0.00,,,0.00,,2013-02-18 03:11:00,
2013-02-17 22:21:00,18.0,10.0,29.74,NW,314,13.0,44.0,69,0.00,,,0.00,,2013-02-18 03:21:00,
2013-02-17 22:32:00,18.0,10.0,29.74,NW,314,13.0,44.0,69,0.00,,,0.00,,2013-02-18 03:32:00,
2013-02-17 22:42:00,18.0,10.0,29.74,NW,314,13.0,44.0,69,0.00,,,0.00,,2013-02-18 03:42:00,
2013-02-17 22:51:00,17.0,10.0,29.75,WNW,301,15.0,44.0,72,0.00,,,0.00,,2013-02-18 03:51:00,
2013-02-17 23:01:00,17.0,10.0,29.75,WNW,301,15.0,44.0,72,0.00,,,0.00,,2013-02-18 04:01:00,
2013-02-17 23:11:00,17.0,10.0,29.75,WNW,301,15.0,44.0,72,0.00,,,0.00,,2013-02-18 04:11:00,
2013-02-17 23:21:00,17.0,10.0,29.76,NW,309,16.0,44.0,74,0.00,,,0.00,,2013-02-18 04:21:00,
2013-02-17 23:32:00,17.0,10.0,29.76,NW,309,16.0,44.0,74,0.00,,,0.00,,2013-02-18 04:32:00,
2013-02-17 23:42:00,17.0,10.0,29.76,NW,309,16.0,44.0,74,0.00,,,0.00,,2013-02-18 04:42:00,
2013-02-17 23:51:00,16.0,9.0,29.78,NW,313,11.0,44.0,75,0.00,,,0.00,,2013-02-18 04:51:00,